Погода в Теплице

Чехия     50°39′05″N   13°50′29″E
темп.,
°C
ветер,
м/с
пор.,
м/с
влажн.,
%
обл.,
%
осадки,
мм/ч
давл.,
гПа
погр.,
м
23 мая, пн
пн2323:00+9всв017855 0.0 101510
02:00+8юв117642 0.0 101412
05:00+7ююв2285100 0.0 101335
08:00+12ююв3769100 0.0 1011404
11:00+15ююв5758100 0.0 1010827
14:00+19ююв685268 0.0 10081308
17:00+17ююв5860100 0.0 1006955
20:00+16юв6126888 0.0 1003662
24 мая, вт
вт2423:00+14ююв51278100 0.0 1005516
02:00+11ю3694100 0.2 1004149
05:00+11ю259899 0.0 1005163
08:00+13з4887100 0.1 1006641
11:00+16з356691 0.1 10071110
14:00+17з4562100 0.1 10081079
17:00+14зюз4784100 0.6 1010512
20:00+13юз2686100 0.8 1011324
25 мая, ср
ср2523:00+11юз2292100 0.8 101357
02:00+10ююз239399 1.3 101461
05:00+10зюз2492100 0.0 101496
08:00+12зюз2584100 0.0 1015291
11:00+14з3465100 0.1 1016888
14:00+16з365196 0.2 10151597
17:00+18зсз474036 0.0 10151856
20:00+14зсз2668100 0.0 1017229
26 мая, чт
чт2623:00+11юз357097 0.0 101877
02:00+11зюз41069100 0.0 1019276
05:00+10зюз387599 0.0 1019185
08:00+13з5106135 0.0 1020972
11:00+16з6105455 0.0 10201524
14:00+15зсз696393 0.1 10211244
17:00+18зсз695037 0.1 10201805
20:00+14зсз38694 0.1 1020470
27 мая, пт
пт2723:00+11зюз268348 0.0 102199
02:00+10зюз368424 0.0 1020120
05:00+11юз410835 0.0 1018303
08:00+15зюз6136824 0.0 10171179
11:00+17з81358100 0.0 10161622
14:00+12зсз61292100 0.8 10171032
17:00+11зсз6129254 0.9 10171004
20:00+10сз4117330 1.3 1018972